Content
SEND FEEDBACK

Daily
Averages
Monthly
Summary
United States of America

MEDWAY, MASSACHUSETTS


Home > North America > United States > Massachusetts
Elevation: 218 feet     Latitude: 42 08N     Longitude: 071 26W

WEATHER
 
SELECT A DAY
Number of Records: 437,671;   Date Range: 1/1/95 - 8/30/14
 
SHARE

PRINT THIS DATA

[ ← Previous Day ]
WEATHER ALMANAC - JANUARY 31, 2013
[ Next Day → ]
[ °C ]   °F
Weather ElementAverageHighLow
Temperature46 °F60.8 °F (2:55 am)30.2 °F (10:15 pm)
Dewpoint31.9 °F55.4 °F (2:35 am)8.6 °F (11:55 pm)
Humidity60.7 %88 % (2:35 am)34 % (4:15 pm)
Barometer29.29 in29.59 in (11:35 pm)29.01 in (8:55 am)
Wind Speed16.2 mph25.3 mph (3:35 am)
Wind Gust51.8 mph (3:35 am)
Weather ElementAverage
Visibility8.9 mi
Wind DirectionWSW (244.4 °)

Weather ElementTotal
Precipitation1.42 in
Heating Degree Days19.5 (Base 65)
Averaged from 64 records on January 31, 2013
WEATHER CONDITIONS BREAKOUT
WIND DIRECTION BREAKOUT
WEATHER BY HOUR - JANUARY 31, 2013
[ °C ]   °F
Local TimeTemperatureDewpointHumidityBarometerVisibilityWind DirectionWind SpeedGust SpeedPrecipitationEventsConditions
2:35 AM59.0 °F55.4 °F88 %29.32 in5.0 miSouth (190°)21.9 mph43.7 mphOvercast
2:55 AM60.8 °F55.4 °F82 %29.30 in7.0 miSouth (190°)19.6 mph50.6 mphOvercast
3:15 AM60.8 °F55.4 °F82 %29.27 in7.0 miSSW (200°)13.8 mph42.6 mphOvercast
3:35 AM60.8 °F55.4 °F82 %29.25 in4.0 miSSW (200°)25.3 mph51.8 mphOvercast
3:55 AM59.0 °F55.4 °F88 %29.22 in3.0 miSouth (190°)20.7 mph42.6 mph0.01 inOvercast
4:15 AM59.0 °F55.4 °F88 %29.20 in4.0 miSSW (200°)16.1 mph34.5 mph0.02 inOvercast
4:35 AM59.0 °F55.4 °F88 %29.18 in5.0 miSSW (200°)19.6 mph32.2 mph0.07 inOvercast
4:55 AM59.0 °F55.4 °F88 %29.16 in5.0 miSouth (180°)16.1 mph41.4 mph0.12 inOvercast
5:15 AM59.0 °F55.4 °F88 %29.13 in5.0 miSouth (190°)17.3 mph39.1 mph0.11 inOvercast
5:35 AM59.0 °F55.4 °F88 %29.10 in4.0 miSouth (190°)23.0 mph42.6 mph0.20 inOvercast
5:55 AM59.0 °F55.4 °F88 %29.06 in4.0 miSouth (190°)20.7 mph42.6 mph0.29 inOvercast
6:15 AM59.0 °F55.4 °F88 %29.08 in4.0 miSSW (210°)18.4 mph34.5 mph0.14 inOvercast
6:35 AM59.0 °F55.4 °F88 %29.10 in6.0 miSW (220°)15.0 mph47.2 mph0.17 inOvercast
6:55 AM57.2 °F53.6 °F88 %29.09 in10.0 miSW (220°)15.0 mph26.5 mph0.19 inOvercast
7:15 AM57.2 °F53.6 °F88 %29.07 in9.0 miSW (220°)10.4 mph23.0 mph0.01 inMostly Cloudy
7:35 AM55.4 °F51.8 °F88 %29.06 in10.0 miSSW (210°)6.9 mph20.7 mph0.02 inMostly Cloudy
7:55 AM55.4 °F51.8 °F88 %29.02 in9.0 miSSW (210°)10.4 mph24.2 mph0.04 inMostly Cloudy
8:15 AM55.4 °F51.8 °F88 %29.04 in9.0 miSSW (200°)9.2 mph20.7 mph0.01 inMostly Cloudy
8:35 AM55.4 °F51.8 °F88 %29.03 in9.0 miSSW (210°)13.8 mph24.2 mph0.01 inOvercast
8:55 AM55.4 °F50.0 °F82 %29.01 in10.0 miSW (220°)18.4 mph35.7 mph0.01 inOvercast
9:15 AM53.6 °F48.2 °F82 %29.02 in10.0 miSW (220°)16.1 mph33.4 mphOvercast
9:35 AM53.6 °F48.2 °F82 %29.04 in10.0 miWSW (240°)17.3 mph26.5 mphOvercast
9:55 AM51.8 °F44.6 °F76 %29.09 in8.0 miWest (280°)20.7 mph43.7 mphOvercast
10:15 AM46.4 °F39.2 °F76 %29.13 in10.0 miWest (280°)18.4 mph28.8 mphMostly Cloudy
10:35 AM46.4 °F39.2 °F76 %29.15 in10.0 miWest (280°)19.6 mph31.1 mphMostly Cloudy
10:55 AM46.4 °F37.4 °F71 %29.16 in10.0 miWNW (290°)16.1 mph21.9 mphMostly Cloudy
11:15 AM46.4 °F37.4 °F71 %29.17 in10.0 miWest (270°)16.1 mph27.6 mphMostly Cloudy
11:35 AM48.2 °F35.6 °F62 %29.18 in10.0 miWest (270°)15.0 mph24.2 mphMostly Cloudy
11:55 AM46.4 °F33.8 °F62 %29.19 in10.0 miWNW (290°)15.0 mph31.1 mphMostly Cloudy
12:15 PM44.6 °F33.8 °F66 %29.19 in10.0 miWest (260°)18.4 mph25.3 mphMostly Cloudy
12:35 PM46.4 °F33.8 °F62 %29.20 in10.0 miWest (260°)13.8 mph29.9 mphPartly Cloudy
12:55 PM42.8 °F33.8 °F70 %29.23 in10.0 miWest (280°)25.3 mph35.7 mphMostly Cloudy
1:15 PM42.8 °F32.0 °F66 %29.24 in10.0 miWest (270°)16.1 mph27.6 mphMostly Cloudy
1:35 PM46.4 °F26.6 °F46 %29.23 in10.0 miWest (270°)19.6 mph32.2 mphClear
1:55 PM46.4 °F21.2 °F37 %29.26 in10.0 miWest (270°)20.7 mph33.4 mphPartly Cloudy
2:15 PM44.6 °F21.2 °F39 %29.27 in10.0 miWest (280°)18.4 mph32.2 mphPartly Cloudy
2:35 PM46.4 °F24.8 °F43 %29.28 in10.0 miWest (270°)17.3 mph27.6 mphMostly Cloudy
2:55 PM44.6 °F19.4 °F37 %29.30 in10.0 miWest (270°)20.7 mph35.7 mphMostly Cloudy
3:15 PM42.8 °F17.6 °F36 %29.31 in10.0 miWest (270°)19.6 mph33.4 mphPartly Cloudy
3:35 PM42.8 °F17.6 °F36 %29.33 in10.0 miWest (270°)15.0 mph25.3 mphPartly Cloudy
3:55 PM42.8 °F17.6 °F36 %29.34 in10.0 miWest (260°)18.4 mph29.9 mphScattered Clouds
4:15 PM42.8 °F15.8 °F34 %29.35 in10.0 miWest (260°)17.3 mph28.8 mphPartly Cloudy
4:35 PM41.0 °F15.8 °F36 %29.36 in10.0 miWest (260°)16.1 mph32.2 mphClear
4:55 PM39.2 °F14.0 °F36 %29.37 in10.0 miWest (270°)16.1 mph24.2 mphClear
5:15 PM39.2 °F14.0 °F36 %29.39 in10.0 miWest (260°)13.8 mph25.3 mphClear
5:35 PM39.2 °F15.8 °F39 %29.41 in10.0 miWest (260°)6.9 mphMostly Cloudy
5:55 PM39.2 °F15.8 °F39 %29.42 in10.0 miWest (260°)17.3 mph36.8 mphOvercast
6:15 PM39.2 °F15.8 °F39 %29.43 in10.0 miWest (260°)12.7 mph21.9 mphMostly Cloudy
6:35 PM37.4 °F15.8 °F41 %29.45 in10.0 miWest (260°)20.7 mph39.1 mphOvercast
7:15 PM37.4 °F12.2 °F36 %29.48 in10.0 miWest (260°)12.7 mph27.6 mphScattered Clouds
7:35 PM35.6 °F12.2 °F38 %29.49 in10.0 miWSW (250°)15.0 mph23.0 mphPartly Cloudy
7:55 PM35.6 °F10.4 °F35 %29.50 in10.0 miWest (270°)18.4 mph25.3 mphClear
8:15 PM35.6 °F12.2 °F38 %29.51 in10.0 miWest (260°)15.0 mph20.7 mphScattered Clouds
8:35 PM33.8 °F14.0 °F44 %29.52 in10.0 miWSW (250°)11.5 mph28.8 mphScattered Clouds
8:55 PM33.8 °F12.2 °F41 %29.53 in10.0 miWest (270°)15.0 mph31.1 mphScattered Clouds
9:15 PM33.8 °F10.4 °F38 %29.55 in10.0 miWest (260°)18.4 mph28.8 mphPartly Cloudy
9:35 PM32.0 °F10.4 °F41 %29.55 in10.0 miWSW (250°)13.8 mph24.2 mphClear
9:55 PM32.0 °F10.4 °F41 %29.56 in10.0 miWest (260°)15.0 mph25.3 mphClear
10:15 PM30.2 °F12.2 °F47 %29.57 in10.0 miWSW (250°)11.5 mph23.0 mphClear
10:35 PM30.2 °F12.2 °F47 %29.58 in10.0 miWest (260°)8.1 mph20.7 mphClear
10:55 PM30.2 °F10.4 °F44 %29.58 in10.0 miWest (260°)15.0 mph23.0 mphPartly Cloudy
11:15 PM30.2 °F10.4 °F44 %29.58 in10.0 miWest (260°)12.7 mph23.0 mphPartly Cloudy
11:35 PM30.2 °F10.4 °F44 %29.59 in10.0 miWSW (240°)10.4 mph20.7 mphClear
11:55 PM30.2 °F8.6 °F40 %29.59 in10.0 miWest (260°)12.7 mph23.0 mphClear
Hourly data recorded from KSFZ, located miles away from Medway, Massachusetts







STORIES FROM OUR PARTNERS